Current weather by "City, St" or "zip code"  
 

Current Conditions: Cleveland, Burke Lakefront Airport, OH

Fair


79.0 F

Last Updated on May 21 2022, 3:53 am EDT
Humidity: 58%
Wind Speed: S 13.8 mph
Barometer 29.83 in
Dewpoint: 63.0 F
Visibility: 10.00 mi
Precip: --
Heat Index: NA
Wind Chill: NA
Current conditions at:

Cleveland, Burke Lakefront Airport, OH (KBKL)

Lat: 41.52556 Lon: 81.66889

Local Radar Image active severe weather and emergency alerts image image weather storm and storm spotter reports image weather observation monitoring service image
Local
Radar
Active
Alerts
Storm Reports Obs
Monitoring

Sign-up For Email & Text Message Weather Alert Notification Services



Advertise Here

Observation History for Cleveland, Burke Lakefront Airport, OH


Time Wind
(mph)
Vis
(mi)
Weather Precip (in) Temperature (F) Relative
Humidity
Wind
Chill
(F)
Heat
Index
(F)
Pressure
Air Dwpt altimeter
(in)
sea level
(mb)
Rmks
3:53 am EDT S 13.8 10.00 Fair -- 79.0 63.0 58% NA NA 29.83 1009.4
2:53 am EDT S 13.8 10.00 Fair -- 80.0 63.0 56% NA 81 29.80 1008.6
1:53 am EDT S 19.6 G 26.5 10.00 Fair -- 81.0 63.0 54% NA 82 29.79 1008.2
12:53 am EDT S 16.1 G 23.0 10.00 Fair -- 81.0 63.0 54% NA 82 29.79 1008.2
11:53 pm EDT S 12.7 10.00 Fair -- 80.0 64.9 60% NA 82 29.78 1008.0
10:53 pm EDT S 12.7 10.00 Fair -- 80.0 66.0 62% NA 82 29.76 1007.3
9:53 pm EDT S 13.8 10.00 Fair -- 81.0 66.0 61% NA 83 29.73 1006.1
8:53 pm EDT S 13.8 G 23.0 10.00 Fair -- 82.0 64.9 56% NA 84 29.66 1004.0
7:53 pm EDT S 20.7 G 31.1 10.00 Fair and Breezy -- 83.0 64.0 53% NA 84 29.62 1002.4
5:53 pm EDT S 23.0 G 35.7 10.00 Fair and Breezy -- 85.0 63.0 48% NA 86 29.61 1002.0
4:53 pm EDT S 23.0 G 34.5 10.00 Fair and Breezy -- 86.0 66.0 51% NA 88 29.59 1001.6
3:53 pm EDT S 15.0 G 27.6 10.00 Partly Cloudy -- 84.0 66.9 57% NA 87 29.63 1003.0
2:53 pm EDT S 18.4 G 23.0 10.00 A Few Clouds -- 84.0 68.0 59% NA 87 29.65 1003.7
11:53 am EDT S 16.1 G 26.5 10.00 Mostly Cloudy -- 73.0 64.0 74% NA NA 29.67 1004.1
10:53 am EDT S 15.0 G 25.3 10.00 Overcast 00.01 71.0 64.0 79% NA NA 29.66 1004.0
9:53 am EDT S 18.4 G 27.6 2.50 Rain -- 70.0 63.0 79% NA NA 29.65 1003.7
8:53 am EDT S 15.0 G 27.6 10.00 Mostly Cloudy -- 74.0 60.1 62% NA NA 29.63 1003.0
7:53 am EDT SE 11.5 10.00 A Few Clouds -- 71.0 57.9 63% NA NA 29.62 1002.6
5:53 am EDT S 18.4 G 24.2 10.00 Fair -- 70.0 57.0 64% NA NA 29.60 1002.0

Regional Weather Observation


Cleveland Hopkins International Airport, OH (KCLE)

Fair
76.0 F

Cleveland / Cuyahoga, OH (KCGF)

Fair
76.0 F

Willoughby, OH (KLNN)

Fair
77.0 F

Lorain / Elyria, Lorain County Regional Airport, OH (KLPR)

Fair
76.0 F

Portage County Airport, OH (KPOV)

Fair
72.0 F

Akron, Akron Fulton International Airport, OH (KAKR)

Fair
74.0 F

Advertise Here


Advertise Here